• Em Portugal
  • Lista de países
  • Para 7 dias
  • Temperatura da água
  • Mapas de satélite
  • Mapa do tempo
  • Widgets de tempo
  • user-avatar
    Iniciar Sessão

    Previsão horária em Beleck

    Hoje, 22 Setembro, Sábado

    Tempo Temperatura Precipitação Vento Pressão Humidade
    00:00 +27°C° 0 mm 2 m/s 759 mmHg 47%
    01:00 +26°C° 0 mm 2 m/s 759 mmHg 45%
    02:00 +26°C° 0 mm 2 m/s 759 mmHg 43%
    03:00 +26°C° 0 mm 2 m/s 759 mmHg 42%
    04:00 +26°C° 0 mm 1 m/s 759 mmHg 42%
    05:00 +26°C° 0 mm 1 m/s 759 mmHg 41%
    06:00 +28°C° 0 mm 1 m/s 759 mmHg 38%
    07:00 +30°C° 0 mm 1 m/s 759 mmHg 34%
    08:00 +32°C° 0 mm 1 m/s 759 mmHg 31%
    09:00 +33°C° 0 mm 1 m/s 759 mmHg 29%
    10:00 +35°C° 0 mm 2 m/s 759 mmHg 27%
    11:00 +36°C° 0 mm 2 m/s 759 mmHg 24%
    12:00 +36°C° 0 mm 3 m/s 759 mmHg 25%
    13:00 +37°C° 0 mm 4 m/s 759 mmHg 26%
    14:00 +37°C° 0 mm 4 m/s 759 mmHg 26%
    15:00 +36°C° 0 mm 4 m/s 759 mmHg 30%
    16:00 +35°C° 0 mm 4 m/s 758 mmHg 33%
    17:00 +34°C° 0 mm 4 m/s 758 mmHg 37%
    18:00 +31°C° 0 mm 3 m/s 759 mmHg 44%
    19:00 +29°C° 0 mm 2 m/s 759 mmHg 50%
    20:00 +28°C° 0 mm 2 m/s 759 mmHg 56%
    21:00 +27°C° 0 mm 2 m/s 759 mmHg 55%
    22:00 +27°C° 0 mm 2 m/s 760 mmHg 53%
    23:00 +27°C° 0 mm 1 m/s 760 mmHg 52%

    Amanhã, 23 Setembro, Domingo

    Tempo Temperatura Precipitação Vento Pressão Humidade
    00:00 +27°C° 0 mm 1 m/s 760 mmHg 50%
    01:00 +27°C° 0 mm 1 m/s 760 mmHg 48%
    02:00 +27°C° 0 mm 1 m/s 760 mmHg 46%
    03:00 +27°C° 0 mm 1 m/s 760 mmHg 44%
    04:00 +27°C° 0 mm 1 m/s 760 mmHg 42%
    05:00 +27°C° 0 mm 1 m/s 760 mmHg 39%
    06:00 +29°C° 0 mm 1 m/s 760 mmHg 36%
    07:00 +30°C° 0 mm 1 m/s 760 mmHg 33%
    08:00 +32°C° 0 mm 1 m/s 760 mmHg 30%
    09:00 +34°C° 0 mm 1 m/s 760 mmHg 27%
    10:00 +36°C° 0 mm 2 m/s 761 mmHg 25%
    11:00 +38°C° 0 mm 2 m/s 761 mmHg 23%
    12:00 +38°C° 0 mm 3 m/s 760 mmHg 23%
    13:00 +38°C° 0 mm 3 m/s 760 mmHg 23%
    14:00 +40°C° 0 mm 4 m/s 760 mmHg 24%
    15:00 +37°C° 0 mm 4 m/s 760 mmHg 27%
    16:00 +36°C° 0 mm 4 m/s 760 mmHg 31%
    17:00 +35°C° 0 mm 4 m/s 759 mmHg 34%
    18:00 +33°C° 0 mm 3 m/s 760 mmHg 39%
    19:00 +31°C° 0 mm 2 m/s 760 mmHg 43%
    20:00 +29°C° 0 mm 2 m/s 761 mmHg 48%
    21:00 +29°C° 0 mm 2 m/s 761 mmHg 45%
    22:00 +29°C° 0 mm 2 m/s 761 mmHg 43%
    23:00 +29°C° 0 mm 1 m/s 761 mmHg 40%

    Depois de amanhã, 24 Setembro, Segunda-feira

    Tempo Temperatura Precipitação Vento Pressão Humidade
    00:00 +28°C° 0 mm 2 m/s 761 mmHg 38%
    01:00 +28°C° 0 mm 2 m/s 761 mmHg 35%
    02:00 +28°C° 0 mm 2 m/s 760 mmHg 33%
    03:00 +28°C° 0 mm 2 m/s 760 mmHg 32%
    04:00 +28°C° 0 mm 2 m/s 760 mmHg 31%
    05:00 +27°C° 0 mm 2 m/s 760 mmHg 30%
    06:00 +29°C° 0 mm 2 m/s 760 mmHg 28%
    07:00 +31°C° 0 mm 2 m/s 760 mmHg 26%
    08:00 +33°C° 0 mm 1 m/s 760 mmHg 25%
    09:00 +34°C° 0 mm 1 m/s 760 mmHg 23%
    10:00 +36°C° 0 mm 2 m/s 760 mmHg 21%
    11:00 +38°C° 0 mm 2 m/s 760 mmHg 19%
    12:00 +38°C° 0 mm 2 m/s 759 mmHg 20%
    13:00 +38°C° 0 mm 3 m/s 759 mmHg 20%
    14:00 +38°C° 0 mm 3 m/s 759 mmHg 21%
    15:00 +36°C° 0 mm 3 m/s 759 mmHg 25%
    16:00 +35°C° 0 mm 3 m/s 758 mmHg 29%
    17:00 +34°C° 0 mm 2 m/s 758 mmHg 33%
    18:00 +31°C° 0 mm 2 m/s 758 mmHg 37%
    19:00 +30°C° 0 mm 1 m/s 759 mmHg 42%
    20:00 +28°C° 0 mm 1 m/s 759 mmHg 46%
    21:00 +28°C° 0 mm 1 m/s 759 mmHg 44%
    22:00 +28°C° 0 mm 1 m/s 759 mmHg 42%
    23:00 +28°C° 0 mm 1 m/s 758 mmHg 40%

    25 Setembro, Terça-feira

    Tempo Temperatura Precipitação Vento Pressão Humidade
    00:00 +27°C° 0 mm 1 m/s 758 mmHg 39%
    01:00 +27°C° 0 mm 1 m/s 758 mmHg 38%
    02:00 +27°C° 0 mm 1 m/s 758 mmHg 38%
    03:00 +27°C° 0 mm 1 m/s 758 mmHg 37%
    04:00 +27°C° 0 mm 1 m/s 758 mmHg 36%
    05:00 +27°C° 0 mm 1 m/s 758 mmHg 35%
    06:00 +29°C° 0 mm 1 m/s 758 mmHg 33%
    07:00 +31°C° 0 mm 1 m/s 758 mmHg 30%
    08:00 +33°C° 0 mm 1 m/s 758 mmHg 27%
    09:00 +34°C° 0 mm 1 m/s 758 mmHg 25%
    10:00 +35°C° 0 mm 1 m/s 758 mmHg 23%
    11:00 +38°C° 0 mm 2 m/s 758 mmHg 21%
    12:00 +38°C° 0 mm 2 m/s 757 mmHg 22%
    13:00 +38°C° 0 mm 3 m/s 757 mmHg 22%
    14:00 +38°C° 0 mm 4 m/s 756 mmHg 23%
    15:00 +37°C° 0 mm 4 m/s 756 mmHg 26%
    16:00 +36°C° 0 mm 4 m/s 756 mmHg 30%
    17:00 +34°C° 0 mm 3 m/s 756 mmHg 34%
    18:00 +33°C° 0 mm 3 m/s 757 mmHg 40%
    19:00 +30°C° 0 mm 3 m/s 757 mmHg 45%
    20:00 +28°C° 0 mm 2 m/s 757 mmHg 50%
    21:00 +28°C° 0 mm 2 m/s 757 mmHg 48%
    22:00 +28°C° 0 mm 2 m/s 757 mmHg 46%
    23:00 +28°C° 0 mm 2 m/s 757 mmHg 44%

    26 Setembro, Quarta-feira

    Tempo Temperatura Precipitação Vento Pressão Humidade
    00:00 +28°C° 0 mm 2 m/s 757 mmHg 45%
    01:00 +28°C° 0 mm 3 m/s 757 mmHg 46%
    02:00 +27°C° 0 mm 3 m/s 757 mmHg 46%
    03:00 +27°C° 0 mm 4 m/s 757 mmHg 49%
    04:00 +27°C° 0 mm 5 m/s 757 mmHg 51%
    05:00 +26°C° 0 mm 5 m/s 757 mmHg 54%
    06:00 +27°C° 0 mm 6 m/s 757 mmHg 51%
    07:00 +28°C° 0 mm 6 m/s 757 mmHg 48%
    08:00 +29°C° 0 mm 6 m/s 758 mmHg 45%
    09:00 +30°C° 0 mm 6 m/s 758 mmHg 41%
    10:00 +33°C° 0 mm 5 m/s 757 mmHg 37%
    11:00 +34°C° 0 mm 5 m/s 757 mmHg 33%
    12:00 +34°C° 0 mm 4 m/s 757 mmHg 33%
    13:00 +35°C° 0 mm 4 m/s 757 mmHg 32%
    14:00 +35°C° 0 mm 3 m/s 756 mmHg 32%
    15:00 +34°C° 0 mm 3 m/s 756 mmHg 34%
    16:00 +33°C° 0 mm 3 m/s 756 mmHg 36%
    17:00 +31°C° 0 mm 3 m/s 756 mmHg 38%
    18:00 +30°C° 0 mm 4 m/s 757 mmHg 40%
    19:00 +28°C° 0 mm 4 m/s 757 mmHg 42%
    20:00 +27°C° 0 mm 5 m/s 757 mmHg 44%
    21:00 +26°C° 0 mm 6 m/s 757 mmHg 45%
    22:00 +24°C° 0 mm 7 m/s 757 mmHg 45%
    23:00 +24°C° 0 mm 8 m/s 757 mmHg 46%

    27 Setembro, Quinta-feira

    Tempo Temperatura Precipitação Vento Pressão Humidade
    00:00 +23°C° 0 mm 8 m/s 757 mmHg 47%
    01:00 +22°C° 0 mm 9 m/s 756 mmHg 48%
    02:00 +22°C° 0 mm 9 m/s 756 mmHg 49%
    03:00 +21°C° 0 mm 9 m/s 756 mmHg 49%
    04:00 +21°C° 0 mm 9 m/s 756 mmHg 49%
    05:00 +19°C° 0 mm 9 m/s 756 mmHg 50%
    06:00 +21°C° 0 mm 10 m/s 756 mmHg 47%
    07:00 +22°C° 0 mm 10 m/s 756 mmHg 44%
    08:00 +22°C° 0 mm 10 m/s 756 mmHg 41%
    09:00 +23°C° 0 mm 10 m/s 756 mmHg 38%
    10:00 +24°C° 0 mm 10 m/s 756 mmHg 35%
    11:00 +26°C° 0 mm 9 m/s 755 mmHg 32%
    12:00 +26°C° 0 mm 9 m/s 755 mmHg 32%
    13:00 +24°C° 0 mm 9 m/s 755 mmHg 33%
    14:00 +24°C° 0 mm 9 m/s 754 mmHg 33%
    15:00 +22°C° 0.1 mm 9 m/s 754 mmHg 36%
    16:00 +21°C° 0.1 mm 9 m/s 754 mmHg 39%
    17:00 +19°C° 0.1 mm 9 m/s 754 mmHg 42%
    18:00 +18°C° 0.4 mm 9 m/s 754 mmHg 46%
    19:00 +17°C° 0.4 mm 10 m/s 754 mmHg 50%
    20:00 +17°C° 0.4 mm 11 m/s 754 mmHg 54%
    21:00 +16°C° 0.5 mm 10 m/s 754 mmHg 56%
    22:00 +16°C° 0.5 mm 10 m/s 754 mmHg 58%
    23:00 +16°C° 0.5 mm 10 m/s 754 mmHg 60%
    Mostrar mais